Location: Étang Rond
(42.7927°N, 1.0661°E)
Time: 01:23:13
(UTC+00:00)

Cosmos 1269 Rocket - Pass Details

Date: 08 November 2025
Orbit: 768 x 775 km, 74.1° (Epoch: 07 December)

Event Time Altitude Azimuth Distance (km) Brightness Sun altitude
Exits shadow 05:09:23 15° 325° (NW) 1,990 5.8 -16.7°
Maximum altitude 05:13:29 46° 257° (WSW) 1,030 4.2 -15.9°
Drops below altitude 10° 05:18:30 10° 184° (S) 2,315 6.5 -15.0°
Sets 05:20:56 0° 179° (S) 3,238 7.4 -14.6°
